QPF
0.00 0.00 0.00 0.00 0.00 0.00 0.00 0.00 0.00 0.00 0.00 0.00 0.00 0.00 0.00 0.00 0.00 0.02 0.00 0.00 0.00 0.00 0.00 0.00 0.00 0.00 0.00 0.00 0.00 0.00 0.00 0.00 0.00 0.00 0.00 0.00 0.00 0.00 0.00 0.00 0.00 0.00 0.00 0.00 0.00 0.00 0.00 0.00 0.00
0.00 0.00 0.00 0.00 0.00 0.00 0.00 0.01 0.00 0.00 0.00 0.00 0.00 0.00 0.00 0.00 0.00 0.00 0.00 0.00 0.00 0.00 0.00 0.00 0.00 0.00 0.00 0.01 0.00 0.00 0.00 0.00 0.00 0.00 0.00 0.00 0.00 0.00 0.00 0.00 0.00 0.00 0.00 0.00 0.01 0.00 0.00 0.00 0.00
0.00 0.00 0.00 0.00 0.00 0.00 0.00 0.00 0.00 0.00 0.00 0.00 0.00 0.00 0.00 0.00 0.00 0.00 0.00 0.00 0.00 0.00 0.00 0.00 0.00 0.00 0.00 0.01 0.00 0.00 0.00 0.00 0.00 0.00 0.00 0.00 0.00 0.00 0.01 0.00 0.00 0.00 0.00 0.00 0.00 0.01 0.00 0.01 0.00
0.00 0.00 0.00 0.00 0.00 0.00 0.00 0.00 0.00 0.00 0.00 0.00 0.00 0.01 0.00 0.00 0.00 0.00 0.00 0.00 0.00 0.00 0.00 0.00 0.00 0.00 0.00 0.01 0.00 0.00 0.00 0.00 0.00 0.00 0.00 0.00 0.00 0.01 0.00 0.00 0.00 0.00 0.00 0.00 0.00 0.00 0.00 0.00 0.00
0.00 0.00 0.00 0.00 0.00 0.00 0.00 0.00 0.00 0.00 0.00 0.00 0.00 0.00 0.00 0.00 0.00 0.00 0.00 0.00 0.00 0.00 0.00 0.00 0.00 0.00 0.00 0.00 0.00 0.00 0.00 0.00 0.00 0.00 0.00 0.00 0.00 0.00 0.00 0.00 0.00 0.00 0.00 0.00 0.00 0.00 0.00 0.00 0.00
0.00 0.00 0.00 0.00 0.00 0.00 0.00 0.00 0.00 0.00 0.00 0.00 0.00 0.00 0.00 0.00 0.00 0.00 0.00 0.00 0.00 0.00 0.00 0.00 0.00 0.00 0.00 0.00 0.00 0.00 0.00 0.00 0.00 0.00 0.00 0.00 0.00 0.00 0.00 0.00 0.00 0.00 0.00 0.00 0.00 0.00 0.00 0.00 0.00
0.00 0.00 0.00 0.00 0.00 0.00 0.00 0.00 0.00 0.00 0.00 0.00 0.00 0.00 0.00 0.00 0.00 0.00 0.00 0.00 0.00 0.00 0.00 0.00 0.00 0.00 0.00 0.00 0.00 0.00 0.00 0.00 0.00 0.00 0.00 0.00 0.00 0.00 0.00 0.00 0.00 0.00 0.00 0.00 0.00 0.00 0.00 0.00 0.00
0.00 0.00 0.00 0.00 0.00 0.00 0.00 0.00 0.00 0.00 0.00 0.00 0.00 0.00 0.00 0.00 0.00 0.00 0.00 0.00 0.00 0.00 0.00 0.00 0.00 0.00 0.00 0.00 0.00 0.00 0.00 0.00 0.00 0.00 0.00 0.00 0.00 0.00 0.00 0.00 0.00 0.00 0.00 0.00 0.00 0.00 0.00 0.00 0.00
0.00 0.00 0.00 0.00 0.00 0.00 0.00 0.00 0.00 0.00 0.00 0.00 0.00 0.00 0.00 0.00 0.00 0.00 0.00 0.00 0.00 0.00 0.00 0.00 0.00 0.00 0.00 0.00 0.00 0.00 0.00 0.00 0.00 0.00 0.00 0.00 0.00 0.00 0.00 0.00 0.00 0.00 0.00 0.00 0.00 0.00 0.00 0.00 0.00
0.00 0.00 0.00 0.00 0.00 0.00 0.00 0.00 0.00 0.00 0.00 0.00 0.00 0.00 0.00 0.00 0.00 0.00 0.00 0.00 0.00 0.00 0.00 0.00 0.00 0.00 0.00 0.00 0.00 0.00 0.00 0.00 0.00 0.00 0.00 0.00 0.00 0.00 0.00 0.00 0.00 0.00 0.00 0.00 0.00 0.00 0.00 0.00 0.00
0.00 0.00 0.00 0.00 0.00 0.00 0.00 0.00 0.00 0.00 0.00 0.00 0.00 0.00 0.00 0.00 0.00 0.00 0.00 0.00 0.00 0.00 0.00 0.00 0.00 0.00 0.00 0.00 0.00 0.00 0.00 0.00 0.00 0.00 0.00 0.00 0.00 0.00 0.00 0.00 0.00 0.00 0.00 0.00 0.00 0.00 0.00 0.01 0.04
0.00 0.00 0.00 0.00 0.00 0.00 0.00 0.00 0.00 0.00 0.00 0.00 0.00 0.00 0.00 0.00 0.00 0.00 0.00 0.00 0.00 0.00 0.00 0.00 0.00 0.00 0.00 0.00 0.00 0.00 0.00 0.00 0.00 0.00 0.00 0.00 0.00 0.00 0.00 0.00 0.00 0.00 0.00 0.00 0.00 0.00 0.00 0.02 0.06
0.00 0.00 0.00 0.00 0.00 0.00 0.00 0.00 0.00 0.00 0.00 0.00 0.00 0.00 0.00 0.00 0.00 0.00 0.00 0.00 0.03 0.01 0.00 0.00 0.00 0.00 0.00 0.00 0.00 0.00 0.00 0.00 0.00 0.00 0.00 0.00 0.00 0.00 0.00 0.00 0.00 0.00 0.00 0.00 0.00 0.00 0.00 0.01 0.01
0.00 0.00 0.00 0.00 0.00 0.00 0.00 0.00 0.00 0.00 0.00 0.00 0.00 0.00 0.00 0.00 0.00 0.00 0.00 0.00 0.01 0.01 0.00 0.00 0.00 0.00 0.00 0.00 0.00 0.00 0.00 0.00 0.00 0.00 0.00 0.00 0.00 0.00 0.00 0.00 0.00 0.00 0.00 0.00 0.00 0.00 0.01 0.00 0.00
0.00 0.00 0.00 0.00 0.00 0.00 0.00 0.00 0.00 0.00 0.00 0.00 0.00 0.00 0.00 0.00 0.00 0.00 0.00 0.00 0.00 0.00 0.00 0.00 0.00 0.00 0.00 0.00 0.00 0.00 0.00 0.00 0.00 0.00 0.00 0.00 0.00 0.00 0.00 0.00 0.00 0.00 0.00 0.00 0.00 0.00 0.00 0.00 0.00
0.00 0.00 0.00 0.00 0.00 0.00 0.00 0.00 0.00 0.00 0.00 0.00 0.00 0.00 0.00 0.00 0.00 0.00 0.00 0.00 0.00 0.00 0.00 0.00 0.00 0.00 0.00 0.00 0.00 0.00 0.00 0.00 0.00 0.00 0.00 0.00 0.00 0.00 0.00 0.00 0.00 0.00 0.00 0.00 0.00 0.00 0.00 0.00 0.00
0.00 0.00 0.00 0.00 0.00 0.00 0.00 0.00 0.00 0.00 0.00 0.00 0.00 0.00 0.00 0.00 0.00 0.00 0.00 0.00 0.00 0.00 0.00 0.00 0.00 0.00 0.00 0.00 0.00 0.00 0.00 0.00 0.00 0.00 0.00 0.00 0.00 0.00 0.00 0.00 0.00 0.00 0.00 0.00 0.00 0.00 0.00 0.00 0.00
0.00 0.00 0.00 0.00 0.00 0.00 0.00 0.00 0.00 0.00 0.00 0.00 0.00 0.00 0.00 0.00 0.00 0.00 0.00 0.00 0.00 0.00 0.00 0.00 0.00 0.00 0.00 0.00 0.00 0.00 0.00 0.00 0.00 0.00 0.00 0.00 0.00 0.00 0.00 0.00 0.00 0.00 0.00 0.00 0.00 0.00 0.00 0.00 0.00
0.00 0.00 0.00 0.00 0.00 0.00 0.00 0.00 0.00 0.00 0.00 0.00 0.00 0.00 0.00 0.00 0.00 0.00 0.00 0.00 0.00 0.00 0.00 0.00 0.00 0.00 0.00 0.00 0.00 0.00 0.00 0.00 0.00 0.00 0.00 0.00 0.00 0.00 0.00 0.00 0.00 0.00 0.00 0.00 0.00 0.00 0.00 0.00 0.01
0.00 0.00 0.00 0.00 0.00 0.00 0.00 0.00 0.00 0.00 0.00 0.00 0.00 0.00 0.00 0.00 0.00 0.00 0.00 0.00 0.00 0.00 0.00 0.02 0.02 0.01 0.01 0.00 0.00 0.00 0.00 0.00 0.00 0.00 0.00 0.00 0.00 0.00 0.00 0.00 0.00 0.00 0.00 0.00 0.00 0.01 0.00 0.00 0.00
0.00 0.00 0.00 0.00 0.00 0.00 0.00 0.00 0.00 0.00 0.00 0.00 0.00 0.00 0.00 0.00 0.00 0.00 0.00 0.00 0.00 0.00 0.01 0.01 0.13 0.18 0.19 0.10 0.06 0.06 0.03 0.01 0.00 0.00 0.00 0.00 0.00 0.00 0.00 0.00 0.00 0.01 0.01 0.00 0.00 0.00 0.01 0.02 0.00
0.00 0.00 0.00 0.00 0.00 0.00 0.00 0.00 0.00 0.00 0.00 0.00 0.00 0.00 0.00 0.00 0.00 0.00 0.00 0.00 0.00 0.00 0.00 0.00 0.05 0.08 0.13 0.20 0.27 0.20 0.13 0.06 0.01 0.00 0.00 0.00 0.01 0.00 0.00 0.00 0.00 0.01 0.02 0.01 0.04 0.03 0.02 0.06 0.01
0.00 0.00 0.00 0.00 0.00 0.00 0.00 0.00 0.00 0.00 0.00 0.00 0.00 0.00 0.00 0.00 0.00 0.00 0.00 0.00 0.00 0.00 0.00 0.00 0.01 0.02 0.03 0.07 0.20 0.30 0.28 0.16 0.12 0.09 0.11 0.10 0.06 0.02 0.01 0.00 0.01 0.01 0.02 0.02 0.04 0.04 0.02 0.03 0.03
0.00 0.00 0.00 0.00 0.00 0.00 0.00 0.00 0.00 0.01 0.01 0.00 0.00 0.00 0.00 0.00 0.00 0.00 0.00 0.00 0.00 0.00 0.00 0.00 0.00 0.00 0.01 0.04 0.09 0.13 0.13 0.10 0.09 0.08 0.11 0.13 0.10 0.07 0.07 0.04 0.03 0.02 0.01 0.00 0.00 0.01 0.02 0.02 0.04
0.00 0.00 0.00 0.00 0.00 0.00 0.00 0.00 0.00 0.00 0.01 0.00 0.00 0.00 0.00 0.00 0.00 0.00 0.00 0.00 0.00 0.00 0.00 0.00 0.00 0.00 0.00 0.00 0.01 0.04 0.07 0.06 0.05 0.08 0.09 0.07 0.05 0.07 0.08 0.05 0.02 0.01 0.01 0.02 0.03 0.03 0.04 0.02 0.01
0.00 0.00 0.00 0.00 0.00 0.00 0.00 0.00 0.00 0.00 0.00 0.00 0.00 0.00 0.00 0.00 0.00 0.00 0.00 0.00 0.00 0.00 0.00 0.00 0.00 0.00 0.00 0.00 0.00 0.00 0.01 0.04 0.05 0.04 0.06 0.07 0.07 0.04 0.03 0.04 0.03 0.01 0.01 0.02 0.04 0.04 0.04 0.04 0.04
0.00 0.00 0.00 0.00 0.00 0.00 0.00 0.00 0.00 0.00 0.00 0.00 0.00 0.00 0.00 0.00 0.00 0.00 0.00 0.00 0.00 0.00 0.00 0.00 0.00 0.00 0.00 0.00 0.00 0.00 0.00 0.00 0.01 0.02 0.02 0.02 0.02 0.02 0.03 0.02 0.00 0.00 0.00 0.00 0.01 0.02 0.02 0.03 0.04
0.00 0.00 0.00 0.00 0.00 0.00 0.00 0.00 0.00 0.00 0.00 0.00 0.00 0.00 0.00 0.00 0.00 0.00 0.00 0.00 0.00 0.00 0.00 0.00 0.00 0.00 0.00 0.00 0.00 0.00 0.00 0.00 0.00 0.00 0.00 0.00 0.00 0.00 0.00 0.00 0.00 0.00 0.00 0.00 0.00 0.00 0.00 0.00 0.01
0.00 0.00 0.00 0.00 0.00 0.00 0.00 0.00 0.00 0.00 0.00 0.00 0.00 0.00 0.00 0.00 0.00 0.00 0.00 0.00 0.00 0.00 0.00 0.00 0.00 0.00 0.00 0.00 0.00 0.00 0.00 0.00 0.00 0.00 0.00 0.00 0.00 0.00 0.00 0.00 0.00 0.00 0.00 0.00 0.00 0.00 0.00 0.00 0.00
0.00 0.00 0.00 0.00 0.00 0.00 0.00 0.00 0.00 0.00 0.00 0.00 0.00 0.00 0.00 0.00 0.00 0.00 0.00 0.00 0.00 0.00 0.00 0.00 0.00 0.00 0.00 0.00 0.00 0.00 0.00 0.00 0.00 0.00 0.00 0.00 0.00 0.00 0.00 0.00 0.00 0.00 0.00 0.00 0.00 0.00 0.00 0.00 0.00
MSLP
1009.04 1008.97 1008.70 1007.45 1006.39 1003.59 1001.56 1000.63 1000.09 999.88 1000.42 1000.19 1000.07 1000.21 1000.79 1001.64 1002.80 1004.93 1005.87 1006.32 1008.19 1009.75 1011.08 1011.69 1012.36 1012.82 1013.37 1013.82 1014.36 1014.75 1015.13 1015.48 1015.73 1016.06 1016.41 1016.67 1016.89 1017.10 1017.33 1017.47 1017.68 1017.84 1018.02 1018.15 1018.23 1018.31 1018.39 1018.49 1018.56
1008.37 1008.23 1007.82 1006.24 1004.81 1002.65 1000.60 1001.46 999.90 999.59 1000.09 1000.15 1000.59 1000.53 1000.94 1002.37 1003.66 1004.88 1005.83 1006.55 1008.19 1009.89 1011.16 1011.89 1012.56 1013.07 1013.55 1014.13 1014.62 1014.98 1015.34 1015.69 1016.03 1016.33 1016.56 1016.85 1017.08 1017.24 1017.54 1017.65 1017.82 1018.02 1018.20 1018.29 1018.37 1018.42 1018.56 1018.69 1018.73
1008.38 1007.21 1006.63 1005.06 1003.52 1001.63 999.97 999.67 998.62 998.97 999.42 1000.12 1000.60 1001.01 1001.73 1003.16 1004.10 1004.86 1005.70 1006.78 1008.42 1010.02 1011.02 1012.21 1012.78 1013.34 1013.77 1014.24 1014.83 1015.21 1015.50 1015.89 1016.25 1016.50 1016.74 1017.06 1017.40 1017.54 1017.77 1017.89 1018.07 1018.21 1018.35 1018.48 1018.51 1018.55 1018.67 1018.79 1018.82
1007.97 1007.20 1006.16 1004.45 1002.58 1000.38 998.88 998.57 998.66 998.71 999.24 1000.35 1001.14 1001.60 1002.67 1003.32 1004.05 1004.72 1005.93 1006.91 1008.43 1009.63 1010.84 1012.58 1013.06 1013.51 1013.98 1014.41 1014.98 1015.47 1015.74 1016.06 1016.38 1016.70 1017.01 1017.25 1017.56 1017.81 1017.94 1018.13 1018.30 1018.48 1018.51 1018.59 1018.69 1018.79 1018.91 1018.93 1018.96
1007.24 1005.48 1004.63 1003.19 1001.84 1000.07 998.58 998.24 998.67 999.04 999.68 1000.37 1001.37 1001.76 1002.55 1003.72 1004.22 1005.35 1006.06 1006.97 1008.10 1009.31 1011.23 1012.53 1013.20 1013.74 1014.18 1014.64 1015.18 1015.65 1016.08 1016.35 1016.63 1016.89 1017.24 1017.47 1017.73 1017.99 1018.04 1018.20 1018.36 1018.49 1018.58 1018.70 1018.74 1018.90 1019.06 1019.10 1019.16
1006.07 1004.98 1003.59 1002.15 1000.63 999.18 998.02 997.57 998.37 999.52 1000.06 1000.80 1001.55 1001.85 1003.23 1004.07 1004.57 1005.48 1006.14 1006.88 1007.80 1009.39 1011.08 1012.57 1013.35 1013.86 1014.37 1014.90 1015.37 1015.85 1016.19 1016.56 1016.90 1017.19 1017.45 1017.77 1017.85 1018.08 1018.14 1018.19 1018.40 1018.54 1018.63 1018.76 1018.92 1018.99 1019.14 1019.23 1019.20
1004.80 1003.85 1002.94 1001.59 999.66 998.01 997.17 997.12 998.05 998.95 999.86 1000.31 1001.23 1002.11 1003.71 1004.23 1004.97 1005.57 1006.21 1006.84 1007.73 1009.38 1010.96 1012.59 1013.40 1014.01 1014.53 1015.16 1015.58 1016.08 1016.42 1016.74 1016.97 1017.44 1017.69 1017.90 1018.06 1018.18 1018.31 1018.30 1018.42 1018.55 1018.60 1018.70 1018.85 1019.02 1019.17 1019.16 1019.19
1004.21 1003.45 1002.15 1000.94 999.62 998.00 996.91 997.06 997.97 999.04 1000.23 1000.83 1001.51 1002.45 1003.91 1004.75 1005.36 1005.75 1006.20 1006.87 1007.67 1009.07 1010.84 1012.09 1013.00 1013.76 1014.24 1015.08 1015.70 1016.18 1016.66 1016.79 1017.09 1017.53 1017.82 1018.08 1018.20 1018.24 1018.34 1018.39 1018.43 1018.52 1018.60 1018.61 1018.65 1018.82 1018.96 1018.95 1018.98
1004.03 1003.24 1001.79 1000.53 999.19 998.16 997.18 997.40 998.04 999.11 999.85 1000.47 1001.44 1002.36 1004.09 1005.20 1005.42 1005.78 1006.25 1006.74 1007.44 1008.60 1010.32 1011.56 1012.48 1013.25 1013.61 1014.32 1015.58 1016.14 1016.73 1016.92 1017.14 1017.57 1017.87 1018.11 1018.10 1018.22 1018.25 1018.18 1018.22 1018.35 1018.50 1018.39 1018.50 1018.69 1018.69 1018.73 1018.58
1003.17 1002.52 1001.52 1000.27 998.79 998.11 997.59 997.79 998.21 999.24 999.99 1000.85 1001.68 1002.84 1003.66 1004.58 1005.04 1005.44 1005.87 1006.35 1006.98 1008.05 1009.50 1010.77 1011.65 1012.59 1012.94 1013.55 1015.05 1015.84 1016.38 1016.72 1016.92 1017.19 1017.67 1017.77 1017.49 1017.60 1017.58 1017.92 1018.16 1018.20 1018.28 1018.28 1018.35 1018.41 1018.32 1018.48 1018.15
1002.59 1001.91 1001.07 999.92 999.50 998.94 999.02 998.82 999.00 999.63 1000.44 1001.33 1001.54 1002.38 1003.60 1004.46 1004.92 1004.98 1005.33 1005.78 1006.43 1007.40 1008.61 1009.82 1010.97 1011.87 1012.16 1012.78 1014.47 1015.22 1015.64 1016.12 1016.50 1016.58 1017.09 1017.28 1016.74 1016.99 1017.20 1017.88 1017.99 1018.05 1018.19 1018.03 1018.08 1017.97 1018.20 1018.07 1018.09
1001.84 1001.59 1001.03 1000.31 999.73 999.91 1000.01 1000.10 999.88 1000.03 1000.43 1000.93 1001.56 1002.07 1003.22 1003.85 1004.48 1005.12 1005.11 1005.24 1005.98 1006.81 1007.93 1009.10 1010.35 1011.37 1011.65 1012.13 1013.56 1014.30 1014.82 1015.28 1015.60 1015.97 1016.31 1016.52 1016.55 1016.63 1016.48 1016.83 1017.14 1017.33 1017.28 1017.23 1017.30 1017.03 1017.19 1018.14 1018.27
1000.95 1000.91 1000.64 1000.18 1000.17 1000.28 1000.39 1000.24 1000.31 1000.29 1000.93 1001.78 1002.21 1002.57 1002.88 1003.45 1004.18 1004.79 1005.78 1005.87 1006.46 1006.81 1007.44 1008.50 1009.71 1010.88 1011.42 1011.98 1012.66 1013.40 1013.94 1014.50 1014.60 1015.05 1015.41 1015.76 1015.95 1016.01 1016.03 1016.18 1016.23 1016.29 1016.35 1016.47 1016.61 1016.46 1016.75 1017.17 1018.06
1000.30 1000.32 1000.36 1000.12 999.94 1000.19 1000.44 1000.33 1000.48 1000.75 1001.67 1002.15 1002.59 1002.80 1002.84 1003.45 1004.04 1005.05 1006.17 1006.76 1006.92 1007.96 1007.47 1008.42 1009.37 1010.46 1011.08 1011.48 1012.17 1012.73 1013.14 1013.53 1013.78 1014.06 1014.54 1014.98 1015.27 1015.47 1015.83 1015.85 1015.54 1015.70 1015.59 1015.63 1015.80 1016.33 1016.91 1017.18 1017.32
1000.18 1000.12 1000.20 999.90 999.70 999.89 1000.18 1000.48 1000.32 1001.19 1001.78 1002.74 1002.77 1002.65 1003.22 1003.64 1003.96 1005.09 1006.40 1007.14 1007.48 1007.53 1007.94 1008.57 1009.31 1010.29 1010.99 1011.35 1011.82 1012.15 1012.56 1012.63 1013.01 1013.28 1013.65 1014.25 1014.80 1015.22 1015.41 1015.48 1015.57 1015.32 1015.23 1015.68 1015.72 1016.05 1016.51 1016.95 1016.96
1000.27 1000.15 999.64 998.97 999.36 999.70 1000.24 1000.29 1000.86 1001.67 1002.17 1003.25 1003.46 1003.77 1004.54 1005.93 1006.32 1006.07 1006.69 1007.64 1007.80 1007.97 1008.36 1008.75 1009.39 1010.30 1010.86 1011.44 1011.69 1011.93 1012.10 1012.36 1012.51 1012.62 1012.99 1013.71 1014.24 1014.78 1015.27 1015.52 1015.44 1015.24 1015.25 1015.24 1015.66 1016.57 1016.19 1016.82 1017.06
999.86 999.25 998.73 998.27 998.99 999.45 1000.29 1000.70 1001.74 1002.30 1002.82 1003.72 1004.39 1005.20 1006.28 1007.62 1008.41 1008.61 1008.53 1008.35 1008.49 1008.40 1008.69 1009.17 1009.57 1009.99 1010.87 1011.38 1011.68 1011.89 1011.89 1012.08 1012.19 1012.30 1012.65 1013.31 1013.64 1014.19 1015.02 1015.22 1015.25 1014.97 1015.08 1015.19 1015.46 1016.15 1016.30 1016.98 1017.32
998.43 998.02 997.53 997.77 999.03 999.79 1000.06 1001.04 1002.24 1002.79 1003.57 1004.55 1005.41 1006.97 1007.96 1008.69 1009.37 1009.61 1009.58 1009.59 1009.60 1009.68 1009.26 1009.64 1010.00 1010.26 1010.84 1011.32 1011.82 1012.02 1012.04 1011.92 1011.91 1012.11 1012.27 1012.74 1013.22 1013.63 1014.25 1014.84 1015.07 1014.84 1015.01 1015.24 1015.52 1016.00 1016.35 1016.72 1017.18
998.96 998.30 997.97 998.08 999.08 1000.01 1000.03 1000.49 1002.16 1003.24 1004.05 1005.39 1006.37 1007.66 1008.78 1009.59 1009.92 1010.08 1010.45 1010.50 1010.50 1010.46 1010.46 1010.11 1010.32 1010.67 1011.10 1011.61 1011.71 1012.03 1012.04 1012.15 1011.95 1011.85 1011.95 1012.06 1012.56 1013.16 1013.84 1014.44 1014.81 1014.69 1014.90 1015.19 1015.54 1015.93 1016.44 1016.92 1017.62
999.76 999.31 999.02 998.74 999.28 1000.18 1000.57 1000.69 1002.01 1003.28 1004.11 1005.55 1007.26 1008.59 1009.49 1010.12 1010.41 1010.62 1011.09 1011.45 1011.46 1011.33 1011.25 1011.11 1010.56 1010.77 1011.30 1011.70 1011.92 1012.01 1012.20 1012.23 1012.24 1011.94 1011.79 1011.86 1012.43 1012.86 1013.43 1014.01 1014.52 1014.61 1014.78 1015.04 1015.48 1015.98 1016.32 1016.84 1017.63
1000.21 1000.10 999.82 999.71 999.67 1000.43 1000.95 1001.20 1002.46 1003.83 1005.31 1006.50 1007.96 1009.21 1009.95 1010.56 1010.80 1011.08 1011.48 1011.96 1012.08 1012.19 1012.20 1012.14 1011.24 1011.57 1011.88 1011.97 1012.09 1012.31 1012.48 1012.58 1012.41 1012.13 1011.87 1012.02 1012.11 1012.58 1013.10 1013.67 1014.14 1014.47 1014.68 1014.90 1015.33 1015.94 1016.46 1016.84 1017.11
1001.05 1001.10 1001.06 1000.88 1000.71 1000.48 1000.67 1000.76 1001.64 1003.95 1005.98 1007.28 1008.37 1009.16 1010.04 1010.60 1011.15 1011.58 1012.21 1012.73 1012.98 1013.25 1013.12 1013.10 1013.19 1013.39 1013.54 1013.37 1013.39 1013.19 1013.21 1013.24 1012.89 1012.71 1012.26 1012.08 1012.24 1012.74 1013.05 1013.37 1013.77 1014.37 1014.77 1015.01 1015.38 1015.72 1016.31 1016.74 1017.30
1001.97 1002.03 1002.08 1001.96 1001.66 1001.41 1001.11 1001.22 1002.30 1003.79 1005.53 1006.99 1008.11 1008.85 1010.05 1011.02 1011.65 1012.21 1012.85 1013.51 1013.67 1013.73 1013.86 1014.02 1014.08 1014.15 1014.33 1014.52 1014.55 1014.52 1014.57 1014.26 1014.36 1014.05 1014.86 1014.98 1013.40 1013.38 1013.60 1013.28 1013.51 1014.17 1014.49 1015.07 1015.47 1015.73 1016.07 1016.40 1016.86
1002.41 1002.59 1002.22 1001.80 1001.51 1000.97 1000.70 1000.99 1001.99 1003.55 1005.04 1006.74 1007.61 1008.41 1009.28 1010.22 1011.82 1012.49 1013.05 1013.65 1014.00 1014.14 1014.32 1014.56 1014.68 1014.90 1014.98 1015.01 1015.07 1015.09 1015.12 1014.92 1014.17 1013.56 1013.07 1015.56 1015.75 1014.91 1015.04 1014.26 1013.97 1013.91 1014.42 1014.86 1014.92 1015.15 1015.54 1015.96 1016.26
1002.33 1002.58 1001.89 1001.13 1000.58 999.72 999.33 999.89 1001.00 1003.34 1005.14 1006.22 1007.89 1008.01 1008.59 1009.44 1011.60 1012.69 1013.44 1013.85 1014.30 1014.46 1014.41 1014.54 1014.86 1015.23 1015.45 1015.50 1015.51 1015.62 1015.79 1016.00 1016.08 1015.72 1016.21 1015.26 1015.27 1014.97 1014.28 1014.54 1014.82 1014.78 1014.66 1014.87 1015.45 1015.33 1015.81 1015.91 1015.76
1002.23 1002.21 1002.28 1001.62 1000.94 999.98 1000.67 1000.70 1001.80 1002.64 1004.57 1005.61 1006.49 1007.19 1008.11 1009.48 1011.47 1013.06 1014.05 1014.46 1014.71 1014.90 1014.99 1015.03 1015.17 1015.34 1015.59 1015.83 1015.94 1016.12 1016.27 1016.41 1016.46 1016.81 1016.76 1016.48 1016.60 1016.00 1015.59 1015.36 1015.48 1015.78 1015.81 1015.49 1015.42 1016.18 1015.90 1016.56 1016.82
1002.29 1002.49 1002.61 1002.59 1002.36 1001.55 1000.86 1001.60 1002.85 1004.04 1004.98 1005.85 1006.52 1007.05 1008.35 1009.49 1011.30 1013.01 1014.19 1014.66 1014.90 1015.04 1015.20 1015.48 1015.72 1015.94 1016.12 1016.30 1016.40 1016.50 1016.72 1016.75 1016.98 1016.94 1016.97 1017.11 1017.32 1017.25 1016.85 1016.53 1016.27 1016.51 1016.61 1016.49 1016.56 1016.29 1016.80 1016.65 1017.01
1003.12 1003.28 1003.29 1002.98 1002.86 1002.16 1001.32 1001.01 1002.35 1004.39 1005.03 1005.74 1006.41 1007.07 1008.50 1009.33 1010.95 1012.57 1013.87 1014.73 1015.11 1015.35 1015.47 1015.61 1015.87 1016.08 1016.31 1016.48 1016.56 1016.73 1016.98 1017.19 1017.28 1017.33 1017.70 1017.83 1017.77 1017.56 1017.43 1017.44 1017.32 1017.51 1017.34 1017.22 1017.16 1017.36 1017.55 1017.23 1017.08
1002.83 1003.35 1003.52 1003.80 1003.70 1003.11 1002.48 1002.35 1003.01 1003.86 1004.19 1005.09 1006.05 1007.07 1008.45 1009.12 1009.89 1011.19 1012.70 1014.02 1014.66 1015.18 1015.43 1015.84 1015.98 1016.09 1016.33 1016.63 1016.88 1017.04 1017.19 1017.34 1017.58 1017.82 1017.88 1017.95 1018.12 1018.11 1017.97 1017.89 1017.79 1018.23 1017.93 1017.69 1018.00 1017.90 1018.11 1018.24 1017.89
1002.42 1003.10 1003.53 1003.73 1003.68 1003.45 1003.30 1002.92 1002.74 1003.41 1004.06 1005.03 1006.18 1007.12 1008.07 1008.82 1009.60 1010.51 1011.70 1012.94 1013.72 1014.52 1014.82 1015.61 1015.95 1016.05 1016.51 1017.03 1017.32 1017.55 1017.57 1017.62 1017.79 1017.94 1018.05 1018.12 1018.29 1018.41 1018.47 1018.65 1018.75 1018.74 1018.66 1018.49 1018.23 1018.20 1018.64 1018.53 1018.55
Thickness
5823 5823 5825 5823 5793 5815 5817 5842 5867 5848 5839 5863 5868 5857 5847 5846 5827 5793 5846 5849 5837 5824 5813 5807 5803 5799 5795 5791 5787 5784 5782 5780 5778 5775 5772 5770 5768 5766 5763 5762 5759 5757 5756 5755 5754 5754 5754 5753 5753
5826 5825 5822 5815 5789 5788 5817 5801 5841 5846 5855 5864 5859 5859 5847 5828 5845 5838 5836 5846 5838 5822 5811 5804 5799 5795 5791 5788 5784 5782 5779 5777 5774 5772 5771 5768 5766 5765 5761 5760 5759 5756 5755 5754 5754 5754 5754 5753 5753
5824 5832 5806 5800 5799 5794 5812 5844 5852 5860 5864 5856 5849 5858 5845 5826 5843 5842 5848 5844 5833 5818 5809 5800 5795 5791 5788 5785 5781 5779 5777 5774 5771 5769 5768 5765 5762 5762 5759 5758 5756 5755 5754 5753 5753 5754 5753 5753 5754
5815 5813 5811 5788 5791 5828 5849 5853 5856 5858 5860 5859 5850 5828 5846 5855 5845 5850 5847 5840 5827 5818 5808 5794 5791 5787 5784 5781 5778 5775 5773 5771 5769 5767 5764 5763 5760 5758 5758 5755 5754 5752 5753 5753 5753 5752 5752 5753 5754
5815 5815 5788 5791 5802 5832 5862 5865 5861 5852 5849 5846 5846 5829 5825 5846 5856 5847 5841 5835 5825 5817 5801 5791 5786 5783 5780 5777 5774 5771 5767 5766 5764 5763 5760 5760 5758 5756 5756 5755 5753 5753 5753 5753 5753 5752 5752 5753 5753
5794 5806 5783 5785 5811 5843 5867 5879 5860 5846 5846 5843 5836 5833 5826 5847 5845 5841 5840 5832 5827 5812 5797 5787 5781 5779 5776 5773 5770 5766 5765 5762 5760 5758 5757 5754 5756 5754 5754 5755 5753 5752 5752 5752 5751 5751 5751 5752 5752
5794 5794 5785 5800 5819 5846 5867 5884 5858 5850 5841 5838 5848 5818 5822 5834 5840 5840 5835 5831 5824 5810 5795 5783 5777 5774 5771 5767 5765 5762 5760 5759 5759 5753 5752 5752 5751 5752 5750 5753 5752 5751 5752 5753 5751 5751 5751 5753 5751
5804 5799 5792 5807 5811 5831 5878 5875 5868 5852 5832 5855 5852 5808 5806 5825 5836 5835 5832 5825 5820 5810 5794 5784 5778 5773 5771 5765 5761 5759 5756 5757 5756 5752 5750 5748 5747 5749 5750 5750 5751 5750 5752 5753 5753 5752 5753 5754 5752
5811 5779 5780 5801 5818 5838 5876 5858 5867 5865 5846 5846 5843 5831 5828 5830 5833 5827 5822 5819 5816 5808 5797 5787 5781 5776 5773 5769 5759 5757 5752 5752 5752 5749 5747 5745 5745 5746 5748 5749 5751 5751 5751 5754 5753 5753 5754 5754 5756
5792 5779 5789 5822 5844 5844 5858 5855 5855 5841 5833 5830 5828 5834 5834 5832 5827 5819 5815 5812 5811 5805 5800 5793 5787 5779 5776 5772 5761 5755 5751 5751 5751 5749 5746 5744 5747 5748 5749 5748 5749 5751 5752 5753 5753 5754 5757 5756 5757
5794 5781 5807 5824 5833 5838 5830 5834 5847 5832 5815 5823 5821 5825 5827 5824 5822 5819 5819 5817 5813 5810 5805 5799 5791 5782 5781 5778 5764 5757 5755 5751 5750 5751 5747 5746 5750 5749 5747 5746 5747 5750 5751 5752 5754 5755 5756 5757 5758
5782 5800 5806 5814 5823 5817 5817 5830 5825 5829 5828 5837 5838 5837 5830 5823 5821 5817 5817 5819 5814 5811 5805 5801 5794 5784 5782 5781 5769 5764 5760 5756 5756 5752 5752 5750 5750 5750 5752 5751 5751 5753 5755 5757 5757 5759 5760 5755 5753
5792 5798 5809 5817 5817 5818 5822 5816 5817 5822 5826 5834 5833 5830 5825 5825 5821 5822 5816 5816 5810 5806 5807 5801 5796 5786 5782 5781 5774 5769 5765 5761 5762 5759 5756 5753 5752 5753 5754 5754 5755 5757 5759 5761 5761 5763 5764 5762 5753
5805 5804 5804 5813 5815 5816 5807 5811 5816 5816 5821 5821 5822 5820 5824 5821 5820 5814 5808 5802 5805 5797 5804 5800 5795 5787 5782 5780 5777 5772 5769 5767 5767 5765 5761 5757 5755 5755 5752 5754 5758 5758 5761 5763 5763 5764 5762 5758 5752
5803 5788 5797 5805 5811 5807 5814 5794 5802 5807 5815 5806 5812 5818 5815 5818 5818 5809 5806 5798 5799 5801 5798 5795 5792 5789 5780 5778 5776 5773 5771 5772 5771 5770 5768 5762 5758 5754 5753 5754 5755 5758 5760 5761 5758 5759 5761 5757 5753
5783 5786 5770 5804 5806 5808 5803 5774 5793 5806 5802 5791 5800 5803 5798 5788 5794 5806 5802 5794 5794 5794 5791 5792 5789 5785 5778 5775 5773 5771 5770 5769 5771 5772 5772 5764 5760 5756 5752 5752 5753 5754 5757 5761 5756 5751 5756 5752 5752
5780 5763 5776 5790 5806 5803 5791 5774 5783 5798 5792 5781 5786 5781 5773 5776 5770 5772 5780 5783 5785 5788 5785 5782 5781 5779 5775 5770 5769 5767 5767 5768 5768 5769 5769 5765 5761 5756 5750 5749 5749 5751 5752 5755 5753 5747 5750 5744 5743
5778 5785 5797 5792 5790 5790 5783 5770 5773 5783 5778 5771 5771 5760 5756 5757 5755 5760 5765 5767 5770 5770 5776 5773 5771 5770 5769 5765 5762 5762 5762 5764 5764 5764 5764 5765 5758 5755 5752 5746 5745 5748 5748 5748 5747 5742 5743 5740 5736
5784 5786 5785 5800 5794 5778 5782 5781 5763 5771 5767 5758 5757 5751 5745 5741 5749 5752 5752 5755 5755 5758 5755 5761 5760 5760 5757 5757 5753 5752 5751 5753 5757 5759 5759 5760 5760 5752 5749 5743 5740 5742 5742 5740 5741 5737 5733 5729 5724
5771 5768 5772 5793 5790 5776 5774 5775 5763 5765 5761 5753 5742 5736 5733 5732 5736 5739 5738 5738 5740 5742 5744 5744 5753 5752 5748 5746 5748 5746 5746 5746 5748 5752 5750 5752 5751 5749 5744 5741 5736 5737 5737 5736 5733 5731 5726 5723 5716
5762 5757 5761 5763 5779 5769 5764 5756 5747 5753 5747 5741 5733 5727 5725 5722 5724 5727 5727 5724 5726 5727 5730 5731 5740 5737 5737 5738 5739 5737 5736 5735 5734 5738 5741 5739 5739 5739 5739 5734 5731 5728 5730 5728 5725 5724 5718 5712 5712
5733 5758 5752 5750 5745 5730 5768 5730 5748 5730 5720 5722 5718 5717 5716 5716 5717 5717 5713 5710 5710 5710 5714 5716 5716 5713 5713 5717 5717 5719 5715 5713 5720 5719 5723 5726 5724 5723 5726 5724 5722 5717 5718 5720 5716 5717 5714 5708 5704
5731 5748 5741 5739 5733 5733 5741 5735 5730 5723 5709 5712 5712 5713 5708 5704 5703 5701 5699 5695 5698 5700 5699 5699 5700 5700 5698 5697 5699 5699 5695 5697 5690 5686 5677 5679 5702 5709 5711 5716 5712 5709 5705 5707 5705 5706 5708 5706 5700
5744 5732 5735 5740 5735 5710 5738 5736 5727 5716 5712 5702 5705 5709 5707 5706 5695 5692 5692 5688 5685 5688 5687 5685 5684 5684 5684 5685 5685 5685 5682 5678 5685 5672 5684 5665 5670 5684 5683 5693 5693 5697 5699 5696 5698 5697 5698 5698 5697
5733 5717 5701 5709 5716 5718 5764 5747 5736 5722 5710 5702 5691 5705 5709 5706 5692 5683 5677 5677 5673 5674 5677 5677 5675 5671 5669 5669 5670 5668 5665 5660 5657 5660 5652 5660 5656 5664 5661 5666 5671 5677 5682 5685 5681 5684 5680 5681 5687
5721 5721 5698 5678 5696 5727 5741 5724 5718 5738 5728 5722 5715 5710 5706 5697 5684 5672 5664 5663 5661 5661 5662 5663 5662 5660 5658 5656 5656 5654 5649 5644 5643 5638 5639 5640 5639 5645 5651 5648 5645 5652 5658 5667 5669 5661 5665 5662 5662
5718 5704 5727 5700 5712 5707 5732 5730 5722 5721 5714 5710 5705 5703 5692 5689 5676 5663 5655 5652 5651 5650 5650 5648 5646 5644 5643 5641 5641 5639 5635 5631 5623 5624 5623 5623 5627 5627 5627 5630 5633 5634 5638 5642 5645 5649 5646 5648 5645
5711 5721 5689 5703 5670 5675 5714 5728 5695 5689 5695 5697 5692 5691 5684 5680 5668 5657 5647 5641 5639 5638 5638 5637 5635 5632 5631 5629 5628 5626 5621 5616 5610 5606 5599 5600 5602 5606 5608 5608 5610 5611 5615 5619 5622 5623 5624 5627 5630
5702 5695 5698 5696 5691 5672 5676 5695 5706 5697 5701 5692 5688 5683 5674 5672 5667 5659 5649 5636 5633 5629 5627 5624 5623 5622 5620 5616 5613 5611 5608 5603 5597 5589 5583 5581 5579 5580 5583 5585 5588 5588 5594 5600 5599 5605 5604 5606 5610
5716 5698 5694 5674 5676 5690 5687 5690 5716 5707 5700 5693 5680 5672 5669 5666 5659 5653 5645 5637 5632 5625 5623 5616 5612 5611 5607 5601 5597 5593 5591 5588 5582 5575 5569 5563 5559 5558 5558 5558 5558 5562 5567 5573 5580 5586 5586 5589 5590